LEJRLPFR

Guest
Details From LEJR - Jerez
To LPFR - Faro
Flight Number -
Tags generated
Created
Modified
Stats Distance 94 nm / 173 km
Max Altitude 0 ft / 0 m
Waypoints 3
Social Downloads 2
Likes 0
Share

Download

Looking for another format? Having issues loading an existing format? Contact us
Advertisement - Login to hide

Notes

Basic altitude profile: - Ascent Rate: 2500ft/min - Ascent Speed: 250kts - Cruise Altitude: 35000ft - Cruise Speed: 420kts - Descent Rate: 1500ft/min - Descent Speed: 250kts Options: - Use NATs: yes - Use PACOTS: yes - Use low airways: yes - Use high airways: yes

Route

LEJR VFA LPFR

ID Type Via Altitude (ft/m) Position (lat/lon) Dist (leg/tot) Name
O LEJR APT - 0 / 0 36.74462 / -6.06011 - / 0 nm Jerez
VFA VOR - 0 / 0 37.01352 / -7.97501 93 / 93 nm FARO VOR-DME
O LPFR APT - 0 / 0 37.01534 / -7.97233 0 / 93 nm Faro

Altitude Profile

Advertisement - Login to hide

LEJR

Details ICAO LEJR (XRY)
Name Jerez La Parra
Region Spain
Timezone Europe/Madrid (UTC+2.0)
Stats Elevation 93 ft / 28 m (AMSL)
Location 36.744600° -6.060110°
Runways 1
Magnetic Variation 0.826° W

METAR

LEJR 200330Z VRB02KT CAVOK 19/12 Q1013

Decode

TAF

TAF LEJR 200200Z 2003/2103 06004KT CAVOK TX37/2015Z TN18/2005Z BECMG 2007/2009 13010KT TEMPO 2008/2015 13015G25KT

Decode

Departure Runways

ID Width Length Bearing (true/mag) Surface Threshold Overrun Markings Lighting
02 148 ft / 45 m 7,567 ft / 2,306 m 21.36° / 22.18° ASPHALT 0 ft / 0 m 197 ft / 60 m PREC-APP CENTERLINE EDGE THRESHOLD SALS REIL-OMNI
20 148 ft / 45 m 7,567 ft / 2,306 m 201.36° / 202.19° ASPHALT 0 ft / 0 m 197 ft / 60 m PREC-APP CENTERLINE EDGE THRESHOLD CALVERT-ILS REIL-OMNI

LPFR

Details ICAO LPFR (FAO)
Name Faro
Region Portugal
Timezone Europe/Lisbon (UTC+1.0)
Stats Elevation 22 ft / 7 m (AMSL)
Location 37.015300° -7.972320°
Runways 1
Magnetic Variation 1.409° W

METAR

LPFR 200300Z 06007KT CAVOK 23/13 Q1012

Decode

TAF

TAF LPFR 192300Z 2000/2024 VRB02KT CAVOK TEMPO 2000/2006 09010KT BECMG 2006/2009 09012KT PROB40 2018/2021 VRB05KT

Decode

Destination Runways

ID Width Length Bearing (true/mag) Surface Threshold Overrun Markings Lighting
10 148 ft / 45 m 8,179 ft / 2,493 m 100.08° / 101.48° ASPHALT 148 ft / 45 m 0 ft / 0 m PREC-APP EDGE THRESHOLD REIL-OMNI
28 148 ft / 45 m 8,179 ft / 2,493 m 280.09° / 281.50° ASPHALT 144 ft / 44 m 0 ft / 0 m PREC-APP EDGE THRESHOLD REIL-OMNI

Approach Navaids

Runway Type Ident Frequency Range Bearing (true/mag) Slope Elevation
28 DME IIF 109.50 MHz 18 nm / 33 km - - 24 ft / 7 m (AMSL)
28 LOC-ILS IIF 109.50 MHz 18 nm / 33 km 280.08° / 281.49 ° - 22 ft / 7 m (AMSL)
28 GS IIF 109.50 MHz 10 nm / 19 km 280.17° / 281.58 ° 3.00° 24 ft / 7 m (AMSL)

Popular Alternatives